Weather History for Rochelle, IL

Change the Weather History Date:

Monday, January 13, 2014

  Actual Average (KRFD) Record (KRFD)
Temperature  
Mean Temperature 32 °F 21 °F  
Max Temperature 41 °F 29 °F 54 °F (1961)
Min Temperature 23 °F 13 °F -17 °F (1916)
Degree Days  
Heating Degree Days 33 44  
Month to date heating degree days 566  
Since 1 July heating degree days 3127  
Cooling Degree Days 0 0  
Month to date cooling degree days 0  
Year to date cooling degree days 0  
Moisture  
Dew Point 29 °F    
Average Humidity 87    
Maximum Humidity 99    
Minimum Humidity 70    
Precipitation  
Precipitation 0.00 in 0.04 in 0.86 in (1979)
Month to date precipitation 0.62  
Year to date precipitation 0.62  
Snow  
Snow 0.00 in 0.30 in 9.50 in (1979)
Month to date snowfall 4.4  
Since 1 July snowfall 17.5  
Snow Depth -    
Sea Level Pressure  
Sea Level Pressure 29.64 in    
Wind  
Wind Speed 7 mph (WSW)    
Max Wind Speed 18 mph    
Max Gust Speed 23 mph    
Visibility 10 miles    
Events      
T = Trace of Precipitation, MM = Missing Value Source: NWS Daily Summary

Daily Weather History Graph

Daily Weather History Graph

Search for Another Location

Airport:

Trip Planner

Search our weather history database for the weather conditions in past years. The results will help you decide how hot, cold, wet, or windy it might be!

Date:

Astronomy

Jan. 13, 2014 Rise Set
Actual Time 7:22 AM CST 4:48 PM CST
Civil Twilight 6:51 AM CST 5:19 PM CST
Nautical Twilight 6:16 AM CST 5:53 PM CST
Astronomical Twilight 5:43 AM CST 6:27 PM CST
Moon 3:03 PM CST (1/13) 5:10 AM CST (1/13)
Length of Visible Light 10h 27m
Length of Day
9h 25m
Waxing Gibbous, 95% of the Moon is Illuminated
Jan 13
Waxing Gibbous
Jan 15
Full
Jan 23
Last Quarter
Jan 30
New
Feb 6
First Quarter

Hourly Weather History & Observations

Time (CST) Temp. Windchill Dew Point Humidity Pressure Visibility Wind Dir Wind Speed Gust Speed Precip Events Conditions
12:15 AM 35.1 °F 28.6 °F 32.0 °F 89% 29.57 in 10.0 mi South 8.1 mph - N/A   Clear
12:35 AM 34.5 °F 28.6 °F 31.8 °F 90% 29.57 in 10.0 mi SSW 6.9 mph - N/A   Clear
12:55 AM 34.0 °F 28.8 °F 31.5 °F 90% 29.57 in 10.0 mi South 5.8 mph - N/A   Clear
1:15 AM 33.1 °F - 30.7 °F 91% 29.56 in 10.0 mi Calm Calm - N/A   Clear
1:35 AM 32.7 °F 26.4 °F 30.6 °F 92% 29.57 in 10.0 mi South 6.9 mph - N/A   Clear
1:55 AM 33.4 °F 28.1 °F 31.6 °F 93% 29.57 in 10.0 mi SSW 5.8 mph - N/A   Clear
2:15 AM 33.3 °F 27.9 °F 31.1 °F 92% 29.58 in 10.0 mi SW 5.8 mph - N/A   Clear
2:35 AM 32.9 °F 25.9 °F 31.1 °F 93% 29.58 in 10.0 mi SW 8.1 mph - N/A   Clear
2:55 AM 32.9 °F 26.7 °F 31.5 °F 94% 29.57 in 10.0 mi SW 6.9 mph - N/A   Clear
3:15 AM 32.5 °F 27.1 °F 31.1 °F 94% 29.57 in 10.0 mi SW 5.8 mph - N/A   Clear
3:35 AM 32.0 °F 25.6 °F 30.2 °F 93% 29.56 in 10.0 mi SSW 6.9 mph - N/A   Clear
3:55 AM 32.0 °F 25.6 °F 30.2 °F 93% 29.56 in 10.0 mi SSW 6.9 mph - N/A   Clear
4:15 AM 32.9 °F 27.5 °F 31.8 °F 96% 29.56 in 10.0 mi SSW 5.8 mph - N/A   Clear
4:35 AM 32.4 °F 26.9 °F 31.1 °F 95% 29.55 in 10.0 mi SSW 5.8 mph - N/A   Clear
4:55 AM 32.0 °F 27.5 °F 30.2 °F 93% 29.54 in 10.0 mi SW 4.6 mph - N/A   Clear
5:15 AM 31.1 °F 27.7 °F 29.5 °F 94% 29.54 in 10.0 mi SW 3.5 mph - N/A   Clear
5:35 AM 30.7 °F 26.0 °F 29.1 °F 94% 29.54 in 10.0 mi SW 4.6 mph - N/A   Clear
5:55 AM 30.6 °F 24.7 °F 29.1 °F 94% 29.55 in 10.0 mi WSW 5.8 mph - N/A   Clear
6:15 AM 30.2 °F 24.3 °F 28.8 °F 94% 29.56 in 10.0 mi SW 5.8 mph - N/A   Clear
6:35 AM 29.8 °F 24.9 °F 28.4 °F 94% 29.55 in 10.0 mi SSW 4.6 mph - N/A   Clear
6:55 AM 29.3 °F 22.3 °F 28.2 °F 96% 29.55 in 10.0 mi South 6.9 mph - N/A   Clear
7:15 AM 28.8 °F 20.2 °F 27.5 °F 95% 29.56 in 10.0 mi SW 9.2 mph - N/A   Clear
7:35 AM 30.2 °F 24.3 °F 29.3 °F 96% 29.56 in 10.0 mi SSW 5.8 mph - N/A   Clear
7:55 AM 31.1 °F 26.4 °F 30.2 °F 96% 29.56 in 10.0 mi SSW 4.6 mph - N/A   Scattered Clouds
8:15 AM 31.1 °F 26.4 °F 30.0 °F 96% 29.58 in 10.0 mi SW 4.6 mph - N/A   Scattered Clouds
8:35 AM 31.3 °F 23.9 °F 30.4 °F 96% 29.59 in 10.0 mi SW 8.1 mph - N/A   Mostly Cloudy
8:55 AM 32.0 °F 28.7 °F 31.6 °F 99% 29.59 in 10.0 mi WSW 3.5 mph - N/A   Overcast
9:15 AM 32.9 °F - 32.0 °F 96% 29.59 in 10.0 mi Calm Calm - N/A   Mostly Cloudy
9:35 AM 34.9 °F - 33.8 °F 96% 29.59 in 10.0 mi Calm Calm - N/A   Overcast
9:55 AM 36.1 °F 32.3 °F 33.3 °F 89% 29.59 in 10.0 mi WSW 4.6 mph - N/A   Overcast
10:15 AM 37.4 °F 32.1 °F 32.9 °F 84% 29.59 in 10.0 mi WSW 6.9 mph - N/A   Overcast
10:35 AM 37.9 °F 32.1 °F 32.5 °F 81% 29.60 in 10.0 mi West 8.1 mph - N/A   Overcast
10:55 AM 38.5 °F 32.7 °F 32.2 °F 78% 29.60 in 10.0 mi West 8.1 mph - N/A   Overcast
11:15 AM 38.8 °F 32.1 °F 32.0 °F 76% 29.59 in 10.0 mi West 10.4 mph - N/A   Overcast
11:35 AM 39.7 °F 33.7 °F 32.2 °F 74% 29.59 in 10.0 mi West 9.2 mph - N/A   Scattered Clouds
11:55 AM 40.3 °F 33.9 °F 32.5 °F 74% 29.59 in 10.0 mi West 10.4 mph - N/A   Clear
12:15 PM 41.2 °F 35.5 °F 32.5 °F 71% 29.59 in 10.0 mi West 9.2 mph - N/A   Clear
12:35 PM 41.2 °F 34.1 °F 32.0 °F 70% 29.59 in 10.0 mi West 12.7 mph - N/A   Clear
12:55 PM 40.6 °F 33.0 °F 32.2 °F 72% 29.60 in 10.0 mi West 13.8 mph - N/A   Clear
1:15 PM 40.5 °F 32.8 °F 32.0 °F 72% 29.61 in 10.0 mi West 13.8 mph - N/A   Clear
1:35 PM 40.3 °F 32.2 °F 32.0 °F 72% 29.61 in 10.0 mi West 15.0 mph - N/A   Clear
1:55 PM 40.1 °F 32.7 °F 32.0 °F 73% 29.61 in 10.0 mi West 12.7 mph - N/A   Clear
2:15 PM 40.1 °F 32.7 °F 32.0 °F 73% 29.63 in 10.0 mi West 12.7 mph - N/A   Clear
2:35 PM 39.6 °F 31.7 °F 32.0 °F 74% 29.63 in 10.0 mi West 13.8 mph - N/A   Clear
2:55 PM 38.5 °F 29.6 °F 31.6 °F 76% 29.64 in 10.0 mi West 16.1 mph 19.6 mph N/A   Clear
3:15 PM 37.4 °F 28.5 °F 31.1 °F 78% 29.66 in 10.0 mi West 15.0 mph 23.0 mph N/A   Clear
3:35 PM 36.5 °F 27.0 °F 30.9 °F 80% 29.67 in 10.0 mi West 16.1 mph - N/A   Clear
3:55 PM 35.1 °F 24.5 °F 30.2 °F 82% 29.69 in 10.0 mi West 18.4 mph - N/A   Clear
4:15 PM 33.8 °F 23.9 °F 29.3 °F 84% 29.69 in 10.0 mi West 15.0 mph - N/A   Clear
4:35 PM 33.1 °F 23.4 °F 29.3 °F 86% 29.70 in 10.0 mi West 13.8 mph - N/A   Clear
4:55 PM 32.2 °F 23.2 °F 28.9 °F 88% 29.70 in 10.0 mi West 11.5 mph - N/A   Clear
5:15 PM 32.0 °F 23.0 °F 28.6 °F 87% 29.71 in 10.0 mi West 11.5 mph - N/A   Clear
5:35 PM 31.8 °F 23.3 °F 28.0 °F 86% 29.72 in 10.0 mi West 10.4 mph - N/A   Clear
5:55 PM 31.6 °F 24.4 °F 27.5 °F 85% 29.73 in 10.0 mi West 8.1 mph - N/A   Clear
6:15 PM 30.9 °F 22.2 °F 27.1 °F 86% 29.73 in 10.0 mi West 10.4 mph - N/A   Clear
6:35 PM 30.9 °F 21.7 °F 27.1 °F 86% 29.74 in 10.0 mi West 11.5 mph - N/A   Clear
6:55 PM 30.4 °F 21.0 °F 26.2 °F 85% 29.75 in 10.0 mi West 11.5 mph - N/A   Clear
7:15 PM 29.8 °F 20.3 °F 25.7 °F 85% 29.76 in 10.0 mi West 11.5 mph - N/A   Clear
7:35 PM 29.5 °F 19.9 °F 25.2 °F 84% 29.76 in 10.0 mi West 11.5 mph - N/A   Clear
7:55 PM 29.3 °F 19.6 °F 24.8 °F 83% 29.76 in 10.0 mi West 11.5 mph - N/A   Clear
8:15 PM 28.9 °F 21.1 °F 24.4 °F 83% 29.76 in 10.0 mi WSW 8.1 mph - N/A   Clear
8:35 PM 28.0 °F 20.8 °F 24.3 °F 86% 29.76 in 10.0 mi West 6.9 mph - N/A   Clear
8:55 PM 27.3 °F 19.9 °F 23.7 °F 86% 29.76 in 10.0 mi WSW 6.9 mph - N/A   Clear
9:15 PM 25.3 °F 16.7 °F 22.1 °F 87% 29.76 in 10.0 mi WSW 8.1 mph - N/A   Clear
9:35 PM 25.2 °F 17.3 °F 22.8 °F 91% 29.77 in 10.0 mi SW 6.9 mph - N/A   Clear
9:55 PM 24.8 °F 20.5 °F 23.0 °F 93% 29.78 in 10.0 mi WSW 3.5 mph - N/A   Clear
10:15 PM 24.8 °F 20.5 °F 23.0 °F 93% 29.77 in 7.0 mi WSW 3.5 mph - N/A   Clear
10:35 PM 24.1 °F 18.2 °F 22.1 °F 92% 29.77 in 7.0 mi WSW 4.6 mph - N/A   Clear
10:55 PM 23.7 °F 15.6 °F 22.1 °F 94% 29.77 in 7.0 mi SW 6.9 mph - N/A   Clear
11:15 PM 24.8 °F 17.9 °F 23.5 °F 95% 29.77 in 7.0 mi WSW 5.8 mph - N/A   Clear
11:35 PM 25.0 °F 19.3 °F 23.7 °F 95% 29.76 in 7.0 mi SW 4.6 mph - N/A   Scattered Clouds
11:55 PM 24.6 °F 20.3 °F 23.0 °F 94% 29.76 in 5.0 mi SSW 3.5 mph - N/A   Scattered Clouds